Location: Regensburg
(49.0167°N, 12.1000°E)
Time: 06:00:54
(UTC+02:00)

ISS - Visible Passes

Search period start: 29 March 2020 00:00
Search period end: 08 April 2020 01:00
Orbit: 417 x 423 km, 51.6° (Epoch: 29 March)

Date Brightness Start Highest point End Pass type
(mag) Time Alt. Az. Time Alt. Az. Time Alt. Az.
29 Mar -3.1 20:08:06 10° WNW 20:11:24 52° N 20:14:42 10° E visible
29 Mar -3.7 21:45:01 10° WNW 21:48:12 77° W 21:48:12 77° W visible
30 Mar -3.7 20:57:40 10° WNW 21:01:02 73° NNE 21:02:43 27° E visible
30 Mar -1.1 22:34:39 10° W 22:35:41 17° W 22:35:41 17° W visible
31 Mar -3.4 20:10:16 10° WNW 20:13:36 61° N 20:16:57 10° E visible
31 Mar -3.1 21:47:10 10° WNW 21:50:14 44° SW 21:50:14 44° SW visible
01 Apr -3.6 20:59:44 10° WNW 21:03:04 64° SSW 21:04:47 26° SE visible
01 Apr -0.7 22:37:33 10° WSW 22:37:46 11° WSW 22:37:46 11° WSW visible
02 Apr -3.7 20:12:19 10° WNW 20:15:42 87° SSW 20:19:04 10° ESE visible
02 Apr -1.9 21:49:35 10° W 21:52:10 21° SW 21:52:21 21° SW visible
03 Apr -2.3 21:01:55 10° W 21:04:55 30° SW 21:06:59 16° SSE visible
05 Apr -1.1 21:04:44 10° WSW 21:06:32 14° SW 21:08:19 10° S visible
